[[{"header":{"parameterUnit":"m.s-1","parameterCategory":1,"la1":30.2991,"la2":30.254,"lo1":-89.0895,"lo2":-89.0444,"dy":0.0017,"dx":0.0017,"nx":28,"ny":28,"refTime":"2025-11-29T03:00:00:Z","depth":0,"parameterNumber":2,"parameterNumberName":"U-component_of_WINDS"},"data":[0,0,0,0,0,0,0,0,0,0,0,0,0,0,0,0,0,0,0,0,0,0,0,0,0,0,0,0,0,0,0,0,0,0,0,0,0,0,0,0,0,0,0,0,0,0,0,0,0,0,0,0,0,0,0,0,0,0,-4.5682,-4.5685,0,-4.5906,-4.5909,-4.5911,-4.5955,-4.5953,-4.5951,-4.5949,-4.618,-4.6188,-4.6196,0,0,0,0,0,0,0,0,0,0,0,0,0,-4.5294,-4.5301,-4.5682,-4.5685,-4.5688,-4.5906,-4.5909,-4.5912,-4.5955,-4.5953,-4.5951,-4.5949,-4.6178,-4.6187,-4.6196,0,0,0,0,0,0,0,0,0,0,0,0,0,-4.5485,-4.5303,-4.5681,-4.5735,-4.5742,-4.5905,-4.5909,-4.5913,-4.5955,-4.5953,-4.595,-4.5947,-4.6175,-4.6186,-4.6198,-4.6323,0,0,-4.6233,-4.6238,0,0,0,0,0,0,0,0,-4.5474,-4.5499,-4.5725,-4.5732,-4.574,-4.59,-4.5857,-4.605,-4.5956,-4.5875,-4.5949,-4.5946,-4.6089,-4.6108,-4.6156,-4.6334,-4.6344,-4.6234,-4.6242,-4.6247,-4.625,0,0,0,0,0,0,0,-4.546,-4.5489,-4.5771,-4.5728,-4.5737,-4.5749,-4.5773,-4.5894,-4.5994,-4.5881,-4.5885,-4.5911,-4.6093,-4.6144,-4.6161,-4.6347,-4.6234,-4.6244,-4.6252,-4.6256,-4.664,-4.6643,0,0,0,0,0,0,-4.5437,-4.5478,-4.5764,-4.5777,-4.5598,-4.5758,-4.5785,-4.5851,-4.5993,-4.6012,-4.5913,-4.5912,-4.6126,-4.6148,-4.617,-4.6325,-4.6246,-4.6257,-4.6264,-4.6637,-4.664,-4.6644,0,0,0,0,0,0,-4.5429,-4.5462,-4.5755,-4.5629,-4.5667,-4.5768,-4.5841,-4.5857,-4.5908,-4.6017,-4.6035,-4.5947,-4.6124,-4.6153,-4.6284,-4.6334,-4.6263,-4.6273,-4.6633,-4.6638,-4.6642,-4.6637,0,0,0,0,0,0,-4.5418,-4.5459,-4.5507,-4.563,-4.5673,-4.5865,-4.5844,-4.5863,-4.5928,-4.5929,-4.6053,-4.6071,-4.6124,-4.6267,-4.6296,-4.6349,-4.6282,-4.6629,-4.6635,-4.6641,-4.6633,-4.6641,-4.6648,0,0,0,0,0,-4.5404,-4.5497,-4.5509,-4.5543,-4.5735,-4.5867,-4.5893,-4.5951,-4.5932,-4.5981,-4.6051,-4.6067,-4.6324,-4.628,-4.6313,-4.637,-4.6626,-4.6633,-4.664,-4.663,-4.6639,-4.6647,0,0,0,0,0,0,-4.5378,-4.5514,-4.5529,-4.5665,-4.5754,-4.5874,-4.5938,-4.596,-4.6057,-4.6054,-4.6123,-4.6151,-4.6278,-4.6338,-4.6286,-4.6499,-4.6474,-4.6488,-4.6455,-4.6465,-4.6472,-4.6454,-4.6292,0,0,0,0,0,-4.5388,-4.5483,-4.5598,-4.5707,-4.5751,-4.5837,-4.5896,-4.5934,-4.603,-4.6068,-4.6147,-4.624,-4.6341,-4.6407,-4.6506,-4.6643,-4.667,-4.6699,-4.6706,-4.6711,-4.6722,-4.6798,-4.6812,-4.6667,-4.6667,-4.6667,0,0,-4.541,-4.5496,-4.5552,-4.5704,-4.5777,-4.5874,-4.5868,-4.5971,-4.6044,-4.6084,-4.6212,-4.6274,-4.6382,-4.6516,-4.6579,-4.6569,-4.6769,-4.672,-4.6724,-4.6732,-4.6807,-4.6821,-4.6833,-4.6672,-4.6671,-4.667,0,0,-4.5499,-4.5574,-4.5673,-4.5747,-4.5858,-4.5915,-4.5939,-4.6057,-4.6099,-4.6229,-4.626,-4.6349,-4.6523,-4.6598,-4.6659,-4.6779,-4.6797,-4.681,-4.6846,-4.692,-4.6931,-4.6942,-4.6983,-4.6997,-4.682,-4.682,-4.682,0,-4.5512,-4.566,-4.5721,-4.5823,-4.5889,-4.5929,-4.6029,-4.6099,-4.6237,-4.6282,-4.6269,-4.6488,-4.6564,-4.6716,-4.6745,-4.6794,-4.6823,-4.6794,-4.6925,-4.6936,-4.6946,-4.6987,-4.7002,-4.6821,-4.6821,-4.6821,-4.6821,0,-4.567,-4.5772,-4.5838,-4.597,-4.6044,-4.6144,-4.6222,-4.6289,-4.6321,-4.6379,-4.6511,-4.6604,-4.6723,-4.6762,-4.6795,-4.692,-4.691,-4.6911,-4.6886,-4.696,-4.6999,-4.7015,-4.6822,-4.6822,-4.6821,-4.6821,0,0,-4.5747,-4.5912,-4.5936,-4.5996,-4.6122,-4.6203,-4.6306,-4.6422,-4.6477,-4.6573,-4.6661,-4.6807,-4.6808,-4.6878,-4.692,-4.6985,-4.7072,-4.6977,-4.6981,-4.699,-4.7215,-4.7212,-4.7229,-4.7086,-4.7089,-4.7092,-4.7205,0,-4.585,-4.6034,-4.6093,-4.6247,-4.6341,-4.6382,-4.6472,-4.6559,-4.6617,-4.6707,-4.6772,-4.6874,-4.6868,-4.691,-4.6977,-4.7047,-4.7118,-4.704,-4.7168,-4.7172,-4.7138,-4.7249,-4.7247,-4.7349,-4.7221,-4.7223,-4.7225,0,-4.5995,-4.6091,-4.6253,-4.6368,-4.641,-4.649,-4.66,-4.6686,-4.6787,-4.6824,-4.6902,-4.6939,-4.7049,-4.702,-4.7173,-4.7119,-4.7175,-4.7218,-4.7224,-4.7236,-4.7201,-4.7263,-4.7383,-4.7397,-4.725,-4.7248,-4.7246,0,-4.6033,-4.6204,-4.6323,-4.6374,-4.6511,-4.6565,-4.6625,-4.6723,-4.6789,-4.6887,-4.693,-4.704,-4.71,-4.7184,-4.725,-4.7223,-4.7397,-4.7373,-4.7431,-4.7429,-4.7463,-4.746,-4.7592,-4.7503,-4.7503,-4.7502,-4.7502,0,-4.6141,-4.6238,-4.6342,-4.6415,-4.6526,-4.6593,-4.6702,-4.6764,-4.6851,-4.6937,-4.698,-4.7061,-4.7143,-4.7235,-4.7288,-4.7406,-4.7433,-4.7467,-4.7479,-4.7462,-4.7457,-4.7498,-4.7492,-4.7507,-4.7506,-4.7505,-4.7504,0,-4.6201,-4.6275,-4.6407,-4.6526,-4.6558,-4.6634,-4.6737,-4.681,-4.687,-4.6979,-4.7009,-4.7103,-4.7213,-4.7288,-4.7429,-4.7465,-4.7592,-4.7605,-4.7558,-4.7563,-4.7616,-4.7609,-4.7777,-4.7803,-4.7698,-4.7698,-4.7699,0,-4.6264,-4.634,-4.6467,-4.6528,-4.6587,-4.6685,-4.6752,-4.6822,-4.6891,-4.7012,-4.707,-4.7183,-4.7277,-4.7451,-4.7533,-4.7642,-4.7656,-4.7708,-4.7672,-4.7653,-4.7655,-4.7649,-4.7657,-4.7712,-4.7713,-4.7713,-4.7714,0,-4.6368,-4.6401,-4.6495,-4.6603,-4.6682,-4.6771,-4.686,-4.6907,-4.6993,-4.7068,-4.7181,-4.7254,-4.7398,-4.7509,-4.7626,-4.7689,-4.7716,-4.7725,-4.7744,-4.7726,-4.7695,-4.7711,-4.7571,-4.772,-4.7719,-4.7719,-4.7719,-4.7718,-4.6431,-4.65,-4.66,-4.6705,-4.6779,-4.6861,-4.6935,-4.7004,-4.7099,-4.7221,-4.7258,-4.7375,-4.7475,-4.7634,-4.7699,-4.7792,-4.7787,-4.7815,-4.7821,-4.7827,-4.7826,-4.7681,-4.7814,-4.7814,-4.7814,-4.7814,-4.7814,0,-4.6536,-4.6602,-4.6698,-4.682,-4.6902,-4.6921,-4.702,-4.7088,-4.719,-4.7281,-4.7372,-4.7502,-4.761,-4.7701,-4.7814,-4.7871,-4.7886,-4.7898,-4.7894,-4.7908,-4.7824,-4.7796,-4.7884,-4.7884,-4.7884,-4.7884,-4.7884,-4.7884,-4.66,-4.6717,-4.6762,-4.6917,-4.6983,-4.7097,-4.7152,-4.7229,-4.7301,-4.7444,-4.7534,-4.7592,-4.7683,-4.7803,-4.7903,-4.7928,-4.7966,-4.7975,-4.8002,-4.7922,-4.7913,-4.7906,-4.7879,-4.7983,-4.7983,-4.8077,-4.8078,-4.8079]},{"header":{"parameterUnit":"m.s-1","parameterCategory":1,"la1":30.2991,"la2":30.254,"lo1":-89.0895,"lo2":-89.0444,"dy":0.0017,"dx":0.0017,"nx":28,"ny":28,"refTime":"2025-11-29T03:00:00:Z","depth":0,"parameterNumber":3,"parameterNumberName":"V-component_of_WINDS"},"data":[0,0,0,0,0,0,0,0,0,0,0,0,0,0,0,0,0,0,0,0,0,0,0,0,0,0,0,0,0,0,0,0,0,0,0,0,0,0,0,0,0,0,0,0,0,0,0,0,0,0,0,0,0,0,0,0,0,0,6.2011,6.2011,0,6.2052,6.2053,6.2053,6.2,6.1998,6.1996,6.1994,6.2031,6.2034,6.2037,0,0,0,0,0,0,0,0,0,0,0,0,0,6.188,6.1883,6.2011,6.2011,6.2012,6.2052,6.2053,6.2053,6.2,6.1998,6.1995,6.1993,6.203,6.2034,6.2037,0,0,0,0,0,0,0,0,0,0,0,0,0,6.1931,6.1884,6.2011,6.199,6.1989,6.2052,6.2053,6.2054,6.2,6.1998,6.1995,6.1992,6.2029,6.2033,6.2038,6.2121,0,0,6.205,6.2052,0,0,0,0,0,0,0,0,6.1928,6.1936,6.1993,6.1992,6.199,6.2018,6.202,6.2076,6.2001,6.1996,6.1994,6.1991,6.2029,6.2033,6.2047,6.2123,6.2125,6.2051,6.2053,6.2055,6.2056,0,0,0,0,0,0,0,6.1925,6.1934,6.2027,6.1994,6.1992,6.1977,6.1981,6.2031,6.2028,6.1996,6.1992,6.1998,6.2028,6.2043,6.2047,6.2125,6.2051,6.2054,6.2057,6.2059,6.2271,6.2274,0,0,0,0,0,0,6.1924,6.1931,6.2026,6.2028,6.1952,6.1982,6.1986,6.2012,6.2027,6.2027,6.2001,6.1996,6.2037,6.2043,6.2048,6.2146,6.2055,6.2059,6.2061,6.2267,6.2271,6.2275,0,0,0,0,0,0,6.1922,6.1933,6.2024,6.1979,6.1989,6.1987,6.2016,6.2014,6.203,6.2031,6.203,6.2017,6.2035,6.2043,6.2104,6.2146,6.2061,6.2065,6.2264,6.2269,6.2273,6.2342,0,0,0,0,0,0,6.1918,6.1933,6.1966,6.198,6.1992,6.208,6.2019,6.2017,6.2038,6.2031,6.2046,6.2046,6.2033,6.2098,6.2108,6.2151,6.2068,6.226,6.2266,6.2271,6.2336,6.2349,6.236,0,0,0,0,0,6.1914,6.1983,6.1968,6.1979,6.2033,6.2083,6.2089,6.2075,6.2041,6.2073,6.2074,6.2045,6.2141,6.2104,6.2115,6.216,6.2257,6.2264,6.2271,6.2331,6.2346,6.2359,0,0,0,0,0,0,6.1971,6.1984,6.1967,6.2044,6.2063,6.2074,6.2114,6.2093,6.212,6.2113,6.2093,6.2097,6.2162,6.2167,6.2126,6.2241,6.2193,6.2203,6.2235,6.2249,6.2261,6.2257,6.2071,0,0,0,0,0,6.1994,6.2034,6.2043,6.2109,6.212,6.2116,6.2136,6.2124,6.2142,6.215,6.2155,6.2172,6.2206,6.2229,6.226,6.2338,6.2339,6.2374,6.2386,6.2395,6.2403,6.2442,6.2457,6.2298,6.2298,6.2297,0,0,6.2038,6.2051,6.2077,6.2121,6.2134,6.2175,6.2122,6.2168,6.2197,6.2156,6.2213,6.2219,6.2236,6.2306,6.2337,6.2312,6.2448,6.2404,6.2412,6.2414,6.2451,6.2466,6.248,6.2302,6.2302,6.2301,0,0,6.214,6.2155,6.2211,6.2226,6.2248,6.2244,6.2258,6.2273,6.2274,6.2333,6.2302,6.2337,6.2396,6.2409,6.2424,6.2533,6.2506,6.2544,6.2603,6.2642,6.2655,6.2666,6.2702,6.2715,6.2552,6.2552,6.2552,0,6.2193,6.2255,6.2242,6.229,6.2309,6.2276,6.2331,6.2346,6.2376,6.2389,6.2362,6.2436,6.2446,6.2517,6.2543,6.2557,6.257,6.254,6.2655,6.2665,6.2675,6.2709,6.2723,6.2556,6.2556,6.2555,6.2555,0,6.2317,6.236,6.2403,6.2434,6.2458,6.251,6.2503,6.2529,6.2515,6.2514,6.2573,6.2585,6.2617,6.2633,6.262,6.2703,6.2687,6.2658,6.2608,6.2695,6.2726,6.274,6.2562,6.2561,6.2559,6.2558,0,0,6.2454,6.2479,6.2494,6.2507,6.253,6.2562,6.2611,6.2645,6.2666,6.2688,6.2727,6.2779,6.2752,6.2769,6.2757,6.2792,6.2874,6.2758,6.2758,6.2777,6.2963,6.2982,6.2998,6.2858,6.2861,6.2863,6.296,0,6.2554,6.2641,6.2631,6.2713,6.2751,6.2721,6.2764,6.2781,6.2782,6.2814,6.2814,6.285,6.2814,6.2823,6.2857,6.2857,6.2911,6.285,6.2891,6.2893,6.2885,6.3015,6.3035,6.3127,6.2973,6.2975,6.2977,0,6.2682,6.271,6.2796,6.2812,6.2827,6.2866,6.2895,6.2927,6.2945,6.2943,6.2963,6.2945,6.2992,6.2945,6.3009,6.2968,6.2985,6.2988,6.2991,6.2991,6.2938,6.3016,6.3156,6.3168,6.2996,6.2995,6.2993,0,6.277,6.2829,6.2888,6.2901,6.2921,6.2949,6.2958,6.2974,6.2994,6.302,6.3032,6.3063,6.3079,6.3102,6.3092,6.3059,6.3157,6.3109,6.3154,6.3154,6.3173,6.3172,6.3315,6.319,6.319,6.3189,6.3189,0,6.2881,6.2934,6.2928,6.2964,6.3022,6.301,6.3067,6.3073,6.3087,6.3122,6.3099,6.3132,6.3118,6.315,6.3143,6.3195,6.3203,6.3201,6.3198,6.3202,6.3201,6.321,6.3202,6.3193,6.3192,6.3192,6.3191,0,6.2987,6.2986,6.3048,6.3063,6.3067,6.3109,6.3121,6.3153,6.3154,6.3198,6.3208,6.3207,6.3243,6.3236,6.3276,6.3271,6.3336,6.3327,6.333,6.3327,6.3371,6.3366,6.3522,6.3541,6.3407,6.3408,6.3409,0,6.3057,6.3097,6.3117,6.3139,6.3151,6.3188,6.3209,6.3199,6.3221,6.3245,6.3275,6.3309,6.3336,6.3395,6.3396,6.3426,6.3415,6.3468,6.3419,6.3421,6.3412,6.3409,6.3412,6.3476,6.3478,6.3479,6.348,0,6.3179,6.3177,6.3209,6.3241,6.3267,6.3292,6.3313,6.3333,6.3324,6.3351,6.3388,6.3409,6.345,6.3483,6.3512,6.3519,6.3498,6.3496,6.3508,6.351,6.3509,6.3507,6.3353,6.3492,6.3491,6.349,6.3489,6.3489,6.3267,6.3301,6.332,6.3356,6.3372,6.3393,6.3424,6.3429,6.346,6.3494,6.3486,6.3528,6.3544,6.358,6.3591,6.3622,6.3602,6.3619,6.3623,6.3627,6.3631,6.3507,6.3627,6.3627,6.3627,6.3627,6.3626,0,6.3386,6.3397,6.3431,6.3463,6.3491,6.3471,6.3494,6.3518,6.3556,6.3574,6.3601,6.3643,6.3676,6.3681,6.3712,6.3736,6.3726,6.3744,6.374,6.3742,6.3648,6.3634,6.375,6.375,6.375,6.375,6.375,6.375,6.3451,6.3506,6.3506,6.3569,6.3579,6.3621,6.3636,6.3654,6.3668,6.3717,6.3745,6.3749,6.3761,6.3792,6.382,6.3821,6.3832,6.3852,6.3849,6.3761,6.3748,6.3736,6.3723,6.3856,6.3856,6.3939,6.394,6.394]}]]